Bethany, Minnesota
Current Conditions -  °F | °C
As of 12:14 PM on Thursday 27 Nov 2014 (Local Time) from KONA Reporting Station
Clear Clear  
Wind Chill:   Ceiling: Unl
Heat Index: 12°   Visibility: 10mi
Dew Point:   Wind: 6mph
Humidity: 62%   Direction: 350°N
Pressure: 30.48"   Gusts: NA
Location:  44.1503°N, 91.9879°W
Report Text: KONA 271814Z AUTO 35005KT 10SM CLR M11/M17 A3048 RMK AO2
Loading
Personal Weather Stations






























Interactive Weather Map New forecast layout! Learn more

10-Day Weather Forecast

Advertisements
Track Severe Weather on mobile